OBJECT E, 65548

Orbit data source: Space-Track

You're viewing an Uncataloged Satellite

Recently launched and/or uncataloged satellites may have evolving metadata. Metadata may include but not limited to: Owner, Maufacturer, Bus, Motor, and Mission.

OBJECT E, 65548 is a satellite owned by CAST (CN) in LEO that was launched on Sat, 06 Sep 2025 UTC launched from the Taiyaun Space Center, China (TSC). Unknown objects in Earth's orbit typically refer to objects detected orbiting the Earth but have not yet been identified or cataloged. These objects could be anything from previously untracked satellites, spent rocket stages, debris from satellite collisions, or even natural meteoroids temporarily captured by Earth's gravity.

Loading next visibility...
Identifier
65548, 2025-199E
Orbit
LEO
Country
Flag of CNCN / PRC
Related business
None
Manufacturer
Unknown
Mission
Spacecraft
Bus & Motor
Unknown
Mass
Unknown
Launch date (UTC)
2025-09-06 (2 weeks ago)
Launch vehicle
Unknown
Launch site
Taiyaun Space Center, China (TSC)
Object type
Unknown
Shape & HBR
Unknown
Radar Cross Section
Large (>1 m²)

Expand to show TLE details & history
Last TLE update: 14 hours ago

TLE from 14 hours ago
0 OBJECT E
1 65548U 25199E   25260.25666526  .00000128  00000-0  44513-4 0  9999
2 65548  85.9959 166.5091 0010185 233.1608 126.8649 14.26935977  1472
Epoch: 2025-09-17T06:09Z
TLE epoch observation values (Epoch: 2025-09-17T06:09:35.878Z)
Latitude
-0.0001°
Longitude
77.67438°
Altitude
809.419 km
Speed
7.446 km/s
True Right ascension
11h 06m 02s
True Declination
0° 00' 00"
Sunlit
Object was in daylight at epoch
Visualization orbit readout
Latitude
Unknown
Longitude
Unknown
Altitude
Unknown
Speed
Unknown
Apparent Right ascension
Unknown
Apparent Declination
Unknown
Sunlit
N/A
Visualization observer readout
Local Sidereal Time
12:32:34
Azimuth
Unknown
Elevation
Unknown
Doppler factor
Unknown
Orbital elements
Apogee altitude
806.284 km
Perigee altitude
791.664 km
Semi-major axis
7,177.111 km
Eccentricity
0.00102
Inclination
85.9959°
RAAN
166.5091°
Arg. of periapsis
233.1608°
True anomaly
126.9582°
Mean anomaly
126.8649°
Eccentric anomaly
126.91156°
Mean motion
3.56959 °/min
Orbital period
100.85 mins
BSTAR
0.000044513
Loading maneuver chart data...
Computing Atmospheric mass density...
Loading historical data...
Loading historical data...
Loading historical data...
Loading historical data...
Loading historical data...
Loading historical data...
Loading historical data...
Other satellites on launch #199 in the year 2025 (2025-09-06 UTC)

Documentation

Showing up to 5 results
|